Location: Kumla
(59.1265°N, 15.1401°E)
Time: 22:00:09
(UTC+01:00)

Vanguard 1 - Pass Details

Date: 08 December 2023
Orbit: 653 x 3825 km, 34.3° (Epoch: 04 March)

Event Time Altitude Azimuth Distance (km) Brightness Sun altitude
Rises 23:35:21 0° 270° (W) 7,376 14.6 -53.5°
Reaches altitude 10° 23:43:28 10° 253° (WSW) 6,737 14.2 -53.6°
Enters shadow 23:46:53 13° 244° (WSW) 6,570 14.0 -53.6°
